New Delhi, India

3:52 PM IST on August 27, 2016 (GMT +0530)
Indira Gandhi International

Weather History for VIDP - March, 2014

Change the Weather History Date:

Sunday, March 30, 2014

  Actual Average Record
Temperature  
Mean Temperature 74 °F -  
Max Temperature 86 °F 96 °F 102 °F (2007)
Min Temperature 62 °F 72 °F 60 °F (1997)
Cooling Degree Days 9    
Growing Degree Days 24 (Base 50)    
Moisture  
Dew Point 53 °F    
Average Humidity 51    
Maximum Humidity 88    
Minimum Humidity 20    
Precipitation  
Precipitation 0.00 in - - ()
Sea Level Pressure  
Sea Level Pressure 29.86 in    
Wind  
Wind Speed 8 mph ()    
Max Wind Speed 16 mph    
Max Gust Speed 21 mph    
Visibility 2.1 miles    
Events Fog    
Averages and records for this station are not official NWS values.
T = Trace of Precipitation, MM = Missing Value Source: Averaged Metar Reports

Daily Weather History Graph

Daily Weather History Graph

Search for Another Location

Airport or City:

Trip Planner

Search our weather history database for the weather conditions in past years. The results will help you decide how hot, cold, wet, or windy it might be!

Date:

Astronomy

Mar. 30, 2014 Rise Set
Actual Time 6:14 AM IST 6:38 PM IST
Civil Twilight 5:50 AM IST 7:01 PM IST
Nautical Twilight 5:23 AM IST 7:29 PM IST
Astronomical Twilight 4:55 AM IST 7:57 PM IST
Moon 5:40 AM IST (3/30) 6:19 PM IST (3/30)
Length of Visible Light 13h 11m
Length of Day
12h 23m
Waning Crescent, 0% of the Moon is Illuminated
Mar 30
Waning Crescent
Mar 31
New
Apr 7
First Quarter
Apr 15
Full
Apr 22
Last Quarter

Hourly Weather History & Observations

Time (IST) Temp. Heat Index Dew Point Humidity Pressure Visibility Wind Dir Wind Speed Gust Speed Precip Events Conditions
12:00 AM 73.4 °F - 59.0 °F 61% 29.89 in 2.2 mi NNW 9.2 mph - N/A   Haze
12:30 AM 73.4 °F - 59.0 °F 61% 29.89 in 2.2 mi NNW 10.4 mph - N/A   Haze
1:00 AM 71.6 °F - 59.0 °F 64% 29.89 in 2.2 mi NNW 9.2 mph - N/A   Haze
1:30 AM 71.6 °F - 59.0 °F 64% 29.86 in 2.2 mi NNW 8.1 mph - N/A   Haze
2:00 AM 71.6 °F - 59.0 °F 64% 29.86 in 2.2 mi NNW 8.1 mph - N/A   Haze
2:30 AM 69.8 °F - 59.0 °F 68% 29.86 in 2.2 mi NNW 8.1 mph - N/A   Haze
3:00 AM 69.8 °F - 57.2 °F 64% 29.86 in 2.2 mi NNW 6.9 mph - N/A   Haze
3:30 AM 69.8 °F - 59.0 °F 68% 29.86 in 2.2 mi NW 5.8 mph - N/A   Haze
4:00 AM 68.0 °F - 59.0 °F 73% 29.83 in 2.2 mi WNW 5.8 mph - N/A   Haze
4:30 AM 66.2 °F - 59.0 °F 78% 29.83 in - NW 5.8 mph - N/A   Mist
5:30 AM 64.4 °F - 59.0 °F 83% 29.86 in 1.4 mi SW 5.8 mph - N/A   Mist
6:00 AM 62.6 °F - 59.0 °F 88% 29.86 in 1.0 mi SW 5.8 mph - N/A   Mist
7:30 AM 64.4 °F - 59.0 °F 83% 29.89 in 0.5 mi West 8.1 mph - N/A Fog Shallow Fog
8:00 AM 66.2 °F - 60.8 °F 83% 29.89 in 0.5 mi WSW 6.9 mph - N/A Fog Shallow Fog
8:30 AM 68.0 °F - 60.8 °F 78% 29.89 in 0.5 mi West 5.8 mph - N/A Fog Shallow Fog
9:00 AM 68.0 °F - 60.8 °F 78% 29.89 in 0.5 mi WSW 5.8 mph - N/A Fog Shallow Fog
9:30 AM 71.6 °F - 59.0 °F 64% 29.92 in 0.7 mi West 5.8 mph - N/A   Smoke
10:00 AM 71.6 °F - 59.0 °F 64% 29.92 in 0.9 mi WNW 6.9 mph - N/A   Smoke
11:00 AM 77.0 °F - 57.2 °F 50% 29.92 in 1.5 mi NW 6.9 mph - N/A   Haze
12:00 PM 82.4 °F 82.0 °F 57.2 °F 42% 29.92 in 2.5 mi WNW 8.1 mph - N/A   Haze
12:30 PM 84.2 °F - 50.0 °F 30% 29.89 in 2.8 mi NW 11.5 mph - N/A   Haze
1:00 PM 86.0 °F - 44.6 °F 23% 29.86 in 2.8 mi NW 15.0 mph - N/A   Haze
2:00 PM 84.2 °F - 42.8 °F 23% 29.86 in 3.1 mi NW 13.8 mph - N/A   Haze
2:30 PM 86.0 °F - 41.0 °F 20% 29.83 in 2.8 mi NW 16.1 mph - N/A   Haze
3:00 PM 84.2 °F - 42.8 °F 23% 29.83 in 2.5 mi NW 16.1 mph - N/A   Haze
3:30 PM 84.2 °F - 42.8 °F 23% 29.83 in 2.5 mi NW 15.0 mph - N/A   Haze
4:00 PM 84.2 °F - 42.8 °F 23% 29.83 in 2.5 mi NW 15.0 mph - N/A   Haze
4:30 PM 84.2 °F - 44.6 °F 25% 29.83 in 2.5 mi NW 15.0 mph - N/A   Haze
5:00 PM 82.4 °F - 44.6 °F 26% 29.83 in 2.5 mi NNW 9.2 mph 20.7 mph N/A   Haze
5:30 PM 82.4 °F - 44.6 °F 26% 29.83 in 2.5 mi NW 9.2 mph 20.7 mph N/A   Haze
6:00 PM 82.4 °F - 44.6 °F 26% 29.83 in 2.5 mi NW 9.2 mph 20.7 mph N/A   Haze
7:00 PM 80.6 °F - 48.2 °F 32% 29.83 in 3.1 mi WNW 10.4 mph - N/A   Haze
7:30 PM 77.0 °F - 48.2 °F 36% 29.83 in 3.1 mi WNW 8.1 mph - N/A   Haze
8:00 PM 75.2 °F - 50.0 °F 41% 29.83 in 2.8 mi WNW 6.9 mph - N/A   Haze
8:30 PM 75.2 °F - 50.0 °F 41% 29.86 in 2.5 mi WNW 6.9 mph - N/A   Haze
9:00 PM 75.2 °F - 51.8 °F 44% 29.86 in 2.5 mi WNW 6.9 mph - N/A   Haze
9:30 PM 73.4 °F - 51.8 °F 47% 29.86 in 2.5 mi NW 6.9 mph - N/A   Haze
10:00 PM 73.4 °F - 51.8 °F 47% 29.86 in 2.5 mi NW 6.9 mph - N/A   Haze
10:30 PM 73.4 °F - 51.8 °F 47% 29.86 in 2.5 mi NW 5.8 mph - N/A   Haze
11:00 PM 73.4 °F - 51.8 °F 47% 29.86 in 2.2 mi NW 6.9 mph - N/A   Haze
11:30 PM 71.6 °F - 53.6 °F 53% 29.86 in - WNW 6.9 mph - N/A   Haze